TimeEDT,TemperatureF,Dew PointF,Humidity,Sea Level PressureIn,VisibilityMPH,Wind Direction,Wind SpeedMPH,Gust SpeedMPH,PrecipitationIn,Events,Conditions,WindDirDegrees,DateUTC
12:15 AM,71.6,69.8,94,30.03,10.0,SW,4.6,-,N/A,,Clear,230,2013-04-20 04:15:00
12:35 AM,71.6,71.6,100,30.03,10.0,SW,3.5,-,N/A,,Scattered Clouds,220,2013-04-20 04:35:00
12:55 AM,71.6,71.6,100,30.03,10.0,Calm,Calm,-,N/A,,Scattered Clouds,0,2013-04-20 04:55:00
1:15 AM,69.8,69.8,100,30.02,10.0,Calm,Calm,-,N/A,,Mostly Cloudy,0,2013-04-20 05:15:00
1:35 AM,71.6,71.6,100,30.02,10.0,Calm,Calm,-,N/A,,Overcast,0,2013-04-20 05:35:00
1:55 AM,71.6,71.6,100,30.01,10.0,South,4.6,-,N/A,,Mostly Cloudy,170,2013-04-20 05:55:00
2:35 AM,69.8,69.8,100,30.00,10.0,South,3.5,-,N/A,,Mostly Cloudy,190,2013-04-20 06:35:00
2:55 AM,71.6,71.6,100,29.99,10.0,South,6.9,-,N/A,,Scattered Clouds,170,2013-04-20 06:55:00
3:15 AM,71.6,71.6,100,29.99,10.0,SSW,4.6,-,N/A,,Clear,210,2013-04-20 07:15:00
3:35 AM,71.6,71.6,100,30.00,10.0,SW,5.8,-,N/A,,Scattered Clouds,220,2013-04-20 07:35:00
3:55 AM,71.6,71.6,100,30.00,10.0,NW,10.4,-,N/A,,Overcast,310,2013-04-20 07:55:00
4:15 AM,69.8,69.8,100,30.01,10.0,NW,8.1,-,N/A,Rain,Light Rain,310,2013-04-20 08:15:00
4:35 AM,69.8,69.8,100,30.02,10.0,NW,6.9,-,N/A,,Light Drizzle,310,2013-04-20 08:35:00
4:55 AM,64.4,64.4,100,30.02,10.0,North,13.8,-,0.05,Rain,Light Rain,350,2013-04-20 08:55:00
5:15 AM,62.6,62.6,100,30.03,10.0,North,10.4,-,0.01,Rain,Light Rain,350,2013-04-20 09:15:00
5:35 AM,62.6,62.6,100,30.04,10.0,NNW,8.1,-,0.01,Rain,Rain,340,2013-04-20 09:35:00
5:55 AM,62.6,62.6,100,30.04,10.0,North,8.1,-,0.01,,Overcast,350,2013-04-20 09:55:00
6:15 AM,62.6,62.6,100,30.04,10.0,North,10.4,-,N/A,,Overcast,10,2013-04-20 10:15:00
6:35 AM,62.6,62.6,100,30.04,10.0,North,6.9,-,N/A,,Mostly Cloudy,360,2013-04-20 10:35:00
6:55 AM,62.6,62.6,100,30.04,10.0,NNE,4.6,-,N/A,,Mostly Cloudy,30,2013-04-20 10:55:00
7:15 AM,60.8,60.8,100,30.05,10.0,NNE,5.8,-,N/A,,Scattered Clouds,30,2013-04-20 11:15:00
7:35 AM,60.8,60.8,100,30.05,10.0,North,6.9,-,N/A,,Scattered Clouds,10,2013-04-20 11:35:00
7:55 AM,60.8,60.8,100,30.06,10.0,NNE,9.2,-,N/A,,Clear,20,2013-04-20 11:55:00
8:15 AM,60.8,60.8,100,30.07,10.0,North,9.2,-,N/A,,Scattered Clouds,10,2013-04-20 12:15:00
8:35 AM,62.6,62.6,100,30.07,10.0,North,10.4,-,N/A,,Mostly Cloudy,360,2013-04-20 12:35:00
8:55 AM,62.6,62.6,100,30.09,10.0,North,11.5,17.3,N/A,,Overcast,360,2013-04-20 12:55:00
9:15 AM,62.6,62.6,100,30.10,10.0,North,10.4,-,N/A,,Overcast,360,2013-04-20 13:15:00
9:35 AM,60.8,60.8,100,30.12,10.0,North,13.8,18.4,N/A,,Overcast,350,2013-04-20 13:35:00
9:55 AM,60.8,60.8,100,30.12,10.0,North,15.0,-,N/A,,Overcast,360,2013-04-20 13:55:00
10:15 AM,60.8,60.8,100,30.13,10.0,North,10.4,13.8,N/A,,Overcast,360,2013-04-20 14:15:00
10:35 AM,62.6,60.8,94,30.12,10.0,North,9.2,-,N/A,,Overcast,360,2013-04-20 14:35:00
11:15 AM,68.0,60.8,78,30.12,10.0,NE,8.1,-,N/A,,Scattered Clouds,40,2013-04-20 15:15:00
11:35 AM,68.0,59.0,73,30.12,10.0,North,8.1,-,N/A,,Mostly Cloudy,10,2013-04-20 15:35:00
11:55 AM,71.6,59.0,64,30.11,10.0,North,10.4,-,N/A,,Scattered Clouds,10,2013-04-20 15:55:00
12:15 PM,71.6,59.0,64,30.11,10.0,North,11.5,-,N/A,,Clear,350,2013-04-20 16:15:00
12:35 PM,71.6,59.0,64,30.11,10.0,North,9.2,-,N/A,,Scattered Clouds,10,2013-04-20 16:35:00
12:55 PM,69.8,59.0,68,30.11,10.0,North,6.9,-,N/A,,Mostly Cloudy,360,2013-04-20 16:55:00
1:15 PM,69.8,59.0,68,30.11,10.0,North,9.2,-,N/A,,Mostly Cloudy,360,2013-04-20 17:15:00
1:35 PM,68.0,60.8,78,30.10,10.0,North,8.1,-,N/A,,Scattered Clouds,350,2013-04-20 17:35:00
1:55 PM,68.0,60.8,78,30.10,10.0,North,8.1,-,N/A,,Scattered Clouds,360,2013-04-20 17:55:00
2:15 PM,68.0,60.8,78,30.10,10.0,North,10.4,-,N/A,,Clear,360,2013-04-20 18:15:00
2:35 PM,69.8,60.8,73,30.09,10.0,NNE,10.4,-,N/A,,Scattered Clouds,20,2013-04-20 18:35:00
2:55 PM,68.0,60.8,78,30.10,10.0,North,9.2,-,N/A,,Mostly Cloudy,360,2013-04-20 18:55:00
3:15 PM,66.2,60.8,83,30.08,10.0,NNE,10.4,-,N/A,,Mostly Cloudy,20,2013-04-20 19:15:00
3:35 PM,66.2,60.8,83,30.07,10.0,NNE,10.4,-,N/A,,Scattered Clouds,30,2013-04-20 19:35:00
3:55 PM,68.0,60.8,78,30.07,10.0,NNE,8.1,-,N/A,,Mostly Cloudy,20,2013-04-20 19:55:00
4:15 PM,68.0,60.8,78,30.07,10.0,NNE,6.9,-,N/A,,Mostly Cloudy,30,2013-04-20 20:15:00
4:35 PM,66.2,60.8,83,30.08,10.0,North,9.2,-,N/A,,Mostly Cloudy,10,2013-04-20 20:35:00
4:55 PM,66.2,60.8,83,30.08,10.0,North,8.1,-,N/A,,Overcast,10,2013-04-20 20:55:00
5:15 PM,64.4,60.8,88,30.08,10.0,NNE,10.4,-,N/A,,Overcast,20,2013-04-20 21:15:00
5:35 PM,64.4,59.0,83,30.06,10.0,NNE,9.2,-,N/A,,Overcast,30,2013-04-20 21:35:00
5:55 PM,64.4,60.8,88,30.07,10.0,NNE,8.1,-,N/A,,Mostly Cloudy,20,2013-04-20 21:55:00
6:15 PM,62.6,59.0,88,30.07,10.0,NNE,11.5,-,N/A,,Mostly Cloudy,20,2013-04-20 22:15:00
6:35 PM,62.6,59.0,88,30.08,10.0,North,9.2,-,N/A,,Overcast,360,2013-04-20 22:35:00
6:55 PM,60.8,59.0,94,30.08,10.0,North,9.2,-,N/A,,Overcast,10,2013-04-20 22:55:00
7:15 PM,60.8,59.0,94,30.10,10.0,North,10.4,-,N/A,,Overcast,10,2013-04-20 23:15:00
7:35 PM,60.8,59.0,94,30.11,10.0,North,10.4,-,N/A,,Overcast,10,2013-04-20 23:35:00
7:55 PM,59.0,59.0,100,30.12,10.0,NNE,10.4,-,N/A,,Overcast,20,2013-04-20 23:55:00
8:15 PM,59.0,59.0,100,30.12,10.0,NE,6.9,-,N/A,,Overcast,40,2013-04-21 00:15:00
8:35 PM,59.0,57.2,94,30.11,10.0,ENE,9.2,-,N/A,,Overcast,60,2013-04-21 00:35:00
8:55 PM,59.0,57.2,94,30.11,10.0,NE,6.9,-,N/A,,Overcast,50,2013-04-21 00:55:00
9:15 PM,59.0,57.2,94,30.14,10.0,NNE,6.9,-,N/A,,Overcast,20,2013-04-21 01:15:00
9:35 PM,59.0,57.2,94,30.15,10.0,North,11.5,-,N/A,,Overcast,10,2013-04-21 01:35:00
9:55 PM,59.0,57.2,94,30.16,10.0,NNE,11.5,-,N/A,,Overcast,30,2013-04-21 01:55:00
10:15 PM,59.0,55.4,88,30.17,10.0,NNE,9.2,-,N/A,,Overcast,30,2013-04-21 02:15:00
10:35 PM,59.0,55.4,88,30.19,10.0,NE,9.2,-,N/A,,Overcast,40,2013-04-21 02:35:00
10:55 PM,59.0,55.4,88,30.19,10.0,NE,9.2,-,N/A,,Overcast,50,2013-04-21 02:55:00
11:15 PM,59.0,55.4,88,30.19,10.0,NE,10.4,-,N/A,,Overcast,50,2013-04-21 03:15:00
11:35 PM,59.0,55.4,88,30.19,10.0,NE,8.1,-,N/A,,Overcast,40,2013-04-21 03:35:00
11:55 PM,59.0,55.4,88,30.19,10.0,NE,8.1,-,N/A,,Overcast,40,2013-04-21 03:55:00